Dewar Lakes, Nunavut

8:09 AM EDT on September 26, 2017 (GMT -0400)
Dewar Lakes

Weather History for CWUW - September, 2012

Change the Weather History Date:

Thursday, September 27, 2012

  Actual Average Record
Temperature  
Mean Temperature 27 °F -  
Max Temperature 31 °F 18 °F 35 °F (1999)
Min Temperature 23 °F 10 °F 8 °F (2004)
Degree Days  
Heating Degree Days 38    
Moisture  
Dew Point -    
Average Humidity    
Maximum Humidity    
Minimum Humidity    
Precipitation  
Precipitation 0.00 in 0.04 in - ()
Sea Level Pressure  
Sea Level Pressure 29.69 in    
Wind  
Wind Speed 15 mph ()    
Max Wind Speed 24 mph    
Max Gust Speed 22 mph    
Visibility 1.9 miles    
Events Rain , Snow    
Averages and records for this station are not official NWS values.
T = Trace of Precipitation, MM = Missing Value Source: Averaged Metar Reports

Daily Weather History Graph

Daily Weather History Graph

Search for Another Location

Airport or City:

Trip Planner

Search our weather history database for the weather conditions in past years. The results will help you decide how hot, cold, wet, or windy it might be!

Date:

Astronomy

Sep. 27, 2012 Rise Set
Actual Time 6:45 AM EDT 6:23 PM EDT
Civil Twilight 5:48 AM EDT 7:20 PM EDT
Nautical Twilight 4:38 AM EDT 8:29 PM EDT
Astronomical Twilight 3:15 AM EDT 9:51 PM EDT
Moon 5:29 PM EDT (9/27) 3:15 AM EDT (9/27)
Length of Visible Light 13h 31m
Length of Day
11h 37m
Waxing Gibbous, 94% of the Moon is Illuminated
Sep 27
Waxing Gibbous
Sep 29
Full
Oct 8
Last Quarter
Oct 15
New
Oct 21
First Quarter

Hourly Weather History & Observations

Time (EDT) Temp. Windchill Dew Point Humidity Pressure Visibility Wind Dir Wind Speed Gust Speed Precip Events Conditions
12:00 AM 30.2 °F 19.8 °F - N/A% 29.70 in 0.0 mi West 13.8 mph - N/A   Clear
12:12 AM 30.2 °F 19.3 °F - N/A% 29.58 in 0.0 mi West 15.0 mph - N/A   Light Freezing Drizzle
12:33 AM 30.2 °F 20.2 °F - N/A% 29.58 in 0.0 mi West 12.7 mph - N/A   Clear
1:00 AM 30.2 °F 20.8 °F - N/A% 29.70 in 0.0 mi West 11.5 mph - N/A   Clear
2:00 AM 30 °F - - % 29.70 in 0 mi SW 12.7 mph - -  
2:00 AM 30.2 °F 19.8 °F - N/A% 29.70 in 0.0 mi SW 13.8 mph - N/A   Clear
3:00 AM 30.2 °F 21.3 °F - N/A% 29.70 in 0.0 mi SW 10.4 mph - N/A   Clear
3:14 AM 30.2 °F 20.2 °F - N/A% 29.58 in 0.0 mi SW 12.7 mph - N/A   Light Freezing Drizzle
3:25 AM 30.2 °F 19.8 °F - N/A% 29.58 in 0.0 mi SW 13.8 mph - N/A   Light Freezing Drizzle
4:00 AM 30.2 °F 19.3 °F - N/A% 29.70 in 0.0 mi SW 15.0 mph - N/A   Light Freezing Drizzle
4:08 AM 30.2 °F 18.9 °F - N/A% 29.58 in 0.0 mi SW 16.1 mph - N/A   Light Freezing Drizzle
4:26 AM 30.2 °F 19.3 °F - N/A% 29.58 in 0.0 mi SW 15.0 mph - N/A   Clear
4:33 AM 30.2 °F 19.3 °F - N/A% 29.57 in 0.0 mi SW 15.0 mph - N/A   Light Freezing Drizzle
4:54 AM 30.2 °F 18.9 °F - N/A% 29.58 in 0.0 mi SW 16.1 mph - N/A   Light Freezing Drizzle
5:00 AM 30 °F - - % 29.69 in 0 mi SW 16.1 mph - - Rain Heavy Freezing Drizzle
5:00 AM 30.2 °F 18.5 °F - N/A% 29.69 in 0.0 mi SW 17.3 mph - N/A   Light Freezing Drizzle
6:00 AM 28.4 °F 15.8 °F - N/A% 29.70 in 0.1 mi SW 18.4 mph - N/A   Light Freezing Drizzle
6:07 AM 28.4 °F 15.4 °F - N/A% 29.58 in 0.1 mi WSW 19.6 mph - N/A   Light Freezing Drizzle
6:11 AM 28.4 °F 15.4 °F - N/A% 29.58 in 0.1 mi WSW 19.6 mph - N/A   Light Freezing Drizzle
6:50 AM 28.4 °F 15.8 °F - N/A% 29.58 in 0.1 mi WSW 18.4 mph - N/A   Light Freezing Drizzle
7:00 AM 28.4 °F 16.2 °F - N/A% 29.70 in 0.1 mi WSW 17.3 mph - N/A   Light Freezing Drizzle
7:19 AM 28.4 °F 16.2 °F - N/A% 29.58 in 0.1 mi WSW 17.3 mph - N/A   Light Freezing Drizzle
7:25 AM 28.4 °F 15.8 °F - N/A% 29.58 in 0.1 mi WSW 18.4 mph - N/A   Clear
7:28 AM 28.4 °F 16.6 °F - N/A% 29.58 in 0.1 mi WSW 16.1 mph - N/A   Light Freezing Drizzle
7:43 AM 28.4 °F 16.6 °F - N/A% 29.59 in 0.1 mi SW 16.1 mph - N/A   Clear
7:54 AM 28.4 °F 17.0 °F - N/A% 29.59 in 0.1 mi WSW 15.0 mph - N/A   Light Freezing Drizzle
8:00 AM 29 °F - - % 29.71 in 0 mi WSW 15.0 mph - -  
8:00 AM 28.4 °F 17.0 °F - N/A% 29.71 in 0.1 mi WSW 15.0 mph - N/A   Light Freezing Drizzle
8:14 AM 28.4 °F 16.6 °F - N/A% 29.60 in 0.1 mi WSW 16.1 mph - N/A   Clear
9:00 AM 28.4 °F 16.2 °F - N/A% 29.71 in 0.1 mi SW 17.3 mph - N/A   Clear
9:09 AM 28.4 °F 16.2 °F - N/A% 29.60 in 0.1 mi SW 17.3 mph - N/A   Light Freezing Drizzle
9:26 AM 28.4 °F 16.2 °F - N/A% 29.61 in 0.1 mi WSW 17.3 mph - N/A   Light Freezing Drizzle
9:39 AM 28.4 °F 16.2 °F - N/A% 29.61 in 0.1 mi SW 17.3 mph - N/A   Clear
9:41 AM 28.4 °F 16.6 °F - N/A% 29.61 in 0.1 mi SW 16.1 mph - N/A   Light Freezing Drizzle
10:00 AM 28.4 °F 16.2 °F - N/A% 29.72 in 0.1 mi SW 17.3 mph - N/A   Light Freezing Drizzle
10:09 AM 28.4 °F 16.2 °F - N/A% 29.60 in 0.1 mi SW 17.3 mph - N/A   Clear
10:29 AM 30.2 °F 18.9 °F - N/A% 29.61 in 0.1 mi WSW 16.1 mph - N/A   Light Freezing Drizzle
10:30 AM 30.2 °F 18.9 °F - N/A% 29.61 in 0.1 mi WSW 16.1 mph - N/A   Clear
10:35 AM 30.2 °F 18.5 °F - N/A% 29.61 in 0.1 mi SW 17.3 mph - N/A   Light Freezing Drizzle
10:38 AM 30.2 °F 18.9 °F - N/A% 29.60 in 0.1 mi SW 16.1 mph - N/A   Light Freezing Drizzle
11:00 AM 29 °F - - % 29.73 in 0 mi SW 16.1 mph - - Rain Heavy Freezing Drizzle
11:00 AM 30.2 °F 18.5 °F - N/A% 29.73 in 0.1 mi SW 17.3 mph - N/A   Light Freezing Drizzle
11:26 AM 30.2 °F 19.3 °F - N/A% 29.61 in 0.1 mi SW 15.0 mph - N/A   Clear
11:40 AM 30.2 °F 19.3 °F - N/A% 29.61 in 0.1 mi SW 15.0 mph - N/A   Light Freezing Drizzle
11:51 AM 30.2 °F 19.8 °F - N/A% 29.61 in 0.1 mi SW 13.8 mph - N/A   Clear
12:00 PM 30.2 °F 19.8 °F - N/A% 29.73 in 0.1 mi SW 13.8 mph - N/A   Clear
12:13 PM 30.2 °F 19.8 °F - N/A% 29.61 in 0.1 mi SW 13.8 mph - N/A   Light Freezing Drizzle
12:20 PM 30.2 °F 19.3 °F - N/A% 29.62 in 0.1 mi SW 15.0 mph - N/A   Clear
12:23 PM 30.2 °F 19.8 °F - N/A% 29.62 in 0.1 mi SW 13.8 mph - N/A   Clear
12:40 PM 30.2 °F 19.8 °F - N/A% 29.62 in 0.1 mi SW 13.8 mph - N/A   Clear
12:55 PM 30.2 °F 19.3 °F - N/A% 29.63 in 0.1 mi WSW 15.0 mph - N/A   Light Freezing Drizzle
12:56 PM 30.2 °F 19.3 °F - N/A% 29.63 in 0.1 mi WSW 15.0 mph - N/A   Light Freezing Drizzle
12:58 PM 30.2 °F 19.3 °F - N/A% 29.63 in 0.1 mi WSW 15.0 mph - N/A   Clear
1:00 PM 30.2 °F 19.3 °F - N/A% 29.75 in 0.1 mi WSW 15.0 mph - N/A   Clear
1:04 PM 30.2 °F 19.3 °F - N/A% 29.63 in 0.1 mi WSW 15.0 mph - N/A   Clear
1:20 PM 30.2 °F 18.5 °F - N/A% 29.63 in 0.1 mi WSW 17.3 mph - N/A   Clear
1:21 PM 30.2 °F 18.5 °F - N/A% 29.63 in 0.1 mi WSW 17.3 mph - N/A   Clear
1:22 PM 30.2 °F 18.5 °F - N/A% 29.63 in 0.1 mi WSW 17.3 mph - N/A   Light Freezing Drizzle
1:27 PM 30.2 °F 18.1 °F - N/A% 29.63 in 0.1 mi WSW 18.4 mph - N/A   Light Freezing Drizzle
1:28 PM 30.2 °F 18.1 °F - N/A% 29.63 in 0.1 mi WSW 18.4 mph - N/A   Clear
2:00 PM 31 °F - - % 29.75 in 0 mi West 18.4 mph - -  
2:00 PM 30.2 °F 18.9 °F - N/A% 29.75 in 0.1 mi West 16.1 mph - N/A   Clear
3:00 PM 30.2 °F 18.1 °F - N/A% 29.77 in 0.1 mi West 18.4 mph - N/A   Clear
3:47 PM 30.2 °F 18.9 °F - N/A% 29.66 in 0.4 mi West 16.1 mph 21.9 mph N/A   Overcast
4:00 PM 30.2 °F 18.1 °F - N/A% 29.78 in 0.5 mi West 18.4 mph - N/A   Overcast
4:01 PM 30.2 °F 18.1 °F - N/A% 29.66 in 0.5 mi West 18.4 mph - N/A   Overcast
4:10 PM 30.2 °F 17.8 °F - N/A% 29.66 in 1.0 mi West 19.6 mph - N/A   Overcast
4:12 PM 30.2 °F 18.1 °F - N/A% 29.66 in 1.0 mi West 18.4 mph - N/A   Light Freezing Drizzle
4:13 PM 30.2 °F 17.8 °F - N/A% 29.66 in 1.1 mi West 19.6 mph - N/A   Light Freezing Drizzle
4:19 PM 30.2 °F 18.1 °F - N/A% 29.67 in 1.1 mi West 18.4 mph - N/A   Overcast
4:26 PM 30.2 °F 17.8 °F - N/A% 29.67 in 1.0 mi West 19.6 mph - N/A   Overcast
4:29 PM 30.2 °F 17.8 °F - N/A% 29.67 in 0.6 mi West 19.6 mph - N/A   Overcast
4:52 PM 30.2 °F 18.1 °F - N/A% 29.68 in 0.8 mi West 18.4 mph - N/A   Overcast
5:00 PM 30 °F - - % 29.81 in 1 mi West 18.4 mph - -   Overcast
5:00 PM 30.2 °F 18.1 °F - N/A% 29.81 in 1.0 mi West 18.4 mph - N/A   Overcast
5:03 PM 30.2 °F 18.1 °F - N/A% 29.69 in 0.6 mi West 18.4 mph - N/A   Overcast
5:10 PM 30.2 °F 19.8 °F - N/A% 29.69 in 0.5 mi West 13.8 mph 19.6 mph N/A   Clear
5:13 PM 30.2 °F 19.8 °F - N/A% 29.69 in 0.4 mi West 13.8 mph 19.6 mph N/A   Clear
5:23 PM 30.2 °F 18.9 °F - N/A% 29.69 in 0.1 mi West 16.1 mph - N/A   Clear
6:00 PM 28.4 °F 15.4 °F - N/A% 29.82 in 0.1 mi West 19.6 mph - N/A   Clear
6:59 PM 28.4 °F 16.2 °F - N/A% 29.72 in 0.4 mi WNW 17.3 mph - N/A   Clear
7:00 PM 28.4 °F 15.8 °F - N/A% 29.85 in 0.4 mi WNW 18.4 mph - N/A   Overcast
7:06 PM 28.4 °F 15.8 °F - N/A% 29.72 in 1.6 mi WNW 18.4 mph - N/A   Clear
7:17 PM 28.4 °F 15.1 °F - N/A% 29.72 in 8.0 mi WNW 20.7 mph - N/A   Clear
7:19 PM 28.4 °F 15.4 °F - N/A% 29.72 in 5.0 mi WNW 19.6 mph - N/A   Overcast
7:20 PM 28.4 °F 15.4 °F - N/A% 29.72 in 3.5 mi WNW 19.6 mph - N/A   Overcast
7:21 PM 28.4 °F 15.4 °F - N/A% 29.72 in 2.5 mi WNW 19.6 mph - N/A   Overcast
7:23 PM 28.4 °F 15.8 °F - N/A% 29.72 in 1.0 mi WNW 18.4 mph - N/A Snow Light Snow
7:24 PM 28.4 °F 15.8 °F - N/A% 29.72 in 0.6 mi WNW 18.4 mph - N/A Snow Light Snow
7:26 PM 28.4 °F 15.8 °F - N/A% 29.72 in 0.4 mi WNW 18.4 mph - N/A Snow Light Snow
7:29 PM 28.4 °F 16.6 °F - N/A% 29.72 in 0.1 mi WNW 16.1 mph - N/A Snow Light Snow
7:59 PM 26.6 °F 14.3 °F - N/A% 29.73 in 0.5 mi WNW 16.1 mph - N/A Snow Light Snow
8:00 PM 28 °F - - % 29.86 in 1 mi WNW 17.3 mph - -   Overcast
8:00 PM 28.4 °F 16.6 °F - N/A% 29.86 in 0.6 mi WNW 16.1 mph - N/A Snow Light Snow
8:07 PM 28.4 °F 17.0 °F - N/A% 29.74 in 1.4 mi WNW 15.0 mph - N/A   Overcast
8:12 PM 26.6 °F 14.3 °F - N/A% 29.74 in 3.5 mi WNW 16.1 mph - N/A   Mostly Cloudy
8:16 PM 26.6 °F 14.3 °F - N/A% 29.75 in 9.0 mi WNW 16.1 mph - N/A   Mostly Cloudy
8:33 PM 26.6 °F 13.4 °F - N/A% 29.75 in 9.0 mi NNW 18.4 mph - N/A   Overcast
8:38 PM 26.6 °F 13.1 °F - N/A% 29.74 in 9.0 mi NNW 19.6 mph - N/A   Overcast
9:00 PM 24.8 °F 11.1 °F - N/A% 29.89 in 9.0 mi NNW 18.4 mph - N/A   Overcast
9:09 PM 23.0 °F 8.7 °F - N/A% 29.74 in 9.0 mi NW 18.4 mph - N/A   Mostly Cloudy
9:57 PM 23.0 °F 9.2 °F - N/A% 29.77 in 9.0 mi NW 17.3 mph - N/A   Mostly Cloudy
10:00 PM 23.0 °F 9.2 °F - N/A% 29.90 in 9.0 mi NW 17.3 mph - N/A   Mostly Cloudy
10:01 PM 23.0 °F 9.2 °F - N/A% 29.76 in 9.0 mi NW 17.3 mph - N/A   Overcast
10:14 PM 23.0 °F 9.6 °F - N/A% 29.77 in 9.0 mi NNW 16.1 mph - N/A   Partly Cloudy
10:18 PM 23.0 °F 9.6 °F - N/A% 29.77 in 9.0 mi NNW 16.1 mph - N/A   Mostly Cloudy
10:44 PM 23.0 °F 9.6 °F - N/A% 29.78 in 9.0 mi NNW 16.1 mph - N/A   Overcast
10:52 PM 23.0 °F 8.0 °F - N/A% 29.78 in 9.0 mi NNW 20.7 mph - N/A Snow Light Snow
10:59 PM 23.0 °F 8.7 °F - N/A% 29.77 in 9.0 mi NNW 18.4 mph - N/A Snow Light Snow
11:00 PM 23 °F - - % 29.90 in 9 mi NW 19.6 mph - - Snow Light Snow
11:00 PM 23.0 °F 8.7 °F - N/A% 29.90 in 9.0 mi NW 18.4 mph - N/A Snow Light Snow
11:14 PM 23.0 °F 8.7 °F - N/A% 29.77 in 9.0 mi NNW 18.4 mph - N/A Snow Light Snow
11:16 PM 23.0 °F 9.2 °F - N/A% 29.77 in 9.0 mi NNW 17.3 mph - N/A   Scattered Clouds
11:17 PM 23.0 °F 8.7 °F - N/A% 29.78 in 9.0 mi NNW 18.4 mph - N/A   Mostly Cloudy
11:37 PM 23.0 °F 6.9 °F - N/A% 29.77 in 9.0 mi NW 24.2 mph - N/A Snow Light Snow